Location: Newark
(52.3500°N, 175.9667°E)
Time: 09:34:04
(UTC+00:00)

N. Korean satellite - Pass Details

Date: 22 November 2019
Orbit: 456 x 506 km, 97.2° (Epoch: 06 December)

Event Time Altitude Azimuth Distance (km) Brightness Sun altitude
Rises 06:03:17 0° 198° (SSW) 2,576 10.7 -15.9°
Reaches altitude 10° 06:05:39 10° 213° (SSW) 1,705 10.0 -16.3°
Maximum altitude 06:08:38 23° 267° (W) 1,112 9.3 -16.7°
Drops below altitude 10° 06:11:40 10° 321° (NW) 1,731 9.7 -17.2°
Sets 06:14:06 0° 337° (NNW) 2,624 10.5 -17.6°
